When you browse on this site, cookies collect data to enhance your experience and personalize the content and advertising you see.
Visit our Privacy Policy to learn more. By continuing to use the site, you agree to this use of cookies and data.

Hourly Weather Lopez

Today, 8 August, Saturday

Time Temperature Precipitation Wind Pressure Humidity
00:00 +16°C° 0 mm 0 mps 625 mmHg 81%
01:00 +15°C° 0 mm 0 mps 625 mmHg 82%
02:00 +15°C° 0 mm 0 mps 624 mmHg 83%
03:00 +15°C° 0 mm 0 mps 624 mmHg 83%
04:00 +14°C° 0 mm 0 mps 624 mmHg 84%
05:00 +15°C° 0 mm 0 mps 624 mmHg 82%
06:00 +15°C° 0 mm 0 mps 624 mmHg 80%
07:00 +16°C° 0 mm 0 mps 625 mmHg 79%
08:00 +20°C° 0 mm 1 mps 626 mmHg 69%
09:00 +23°C° 0 mm 1 mps 627 mmHg 60%
10:00 +25°C° 0 mm 1 mps 629 mmHg 51%
11:00 +26°C° 0 mm 1 mps 628 mmHg 49%
12:00 +27°C° 0 mm 1 mps 628 mmHg 47%
13:00 +28°C° 0 mm 2 mps 628 mmHg 45%
14:00 +27°C° 0 mm 2 mps 627 mmHg 45%
15:00 +27°C° 0 mm 2 mps 627 mmHg 46%
16:00 +27°C° 0 mm 2 mps 626 mmHg 46%
17:00 +24°C° 0 mm 2 mps 626 mmHg 56%
18:00 +22°C° 0 mm 1 mps 625 mmHg 66%
19:00 +20°C° 0 mm 1 mps 624 mmHg 75%
20:00 +19°C° 0 mm 1 mps 625 mmHg 78%
21:00 +19°C° 0 mm 1 mps 625 mmHg 80%
22:00 +18°C° 0 mm 1 mps 626 mmHg 83%
23:00 +18°C° 0 mm 1 mps 625 mmHg 83%

Tomorrow, 9 August, Sunday

Time Temperature Precipitation Wind Pressure Humidity
00:00 +15°C° 0 mm 0 mps 625 mmHg 84%
01:00 +15°C° 0 mm 0 mps 624 mmHg 84%
02:00 +15°C° 0 mm 0 mps 624 mmHg 83%
03:00 +14°C° 0 mm 0 mps 624 mmHg 83%
04:00 +14°C° 0 mm 0 mps 624 mmHg 82%
05:00 +15°C° 0 mm 0 mps 624 mmHg 81%
06:00 +15°C° 0 mm 0 mps 624 mmHg 79%
07:00 +18°C° 0 mm 1 mps 625 mmHg 78%
08:00 +21°C° 0 mm 1 mps 626 mmHg 68%
09:00 +23°C° 0 mm 1 mps 627 mmHg 58%
10:00 +26°C° 0 mm 1 mps 628 mmHg 48%
11:00 +27°C° 0 mm 1 mps 628 mmHg 46%
12:00 +28°C° 0 mm 1 mps 628 mmHg 44%
13:00 +28°C° 0 mm 1 mps 628 mmHg 43%
14:00 +27°C° 0.1 mm 1 mps 627 mmHg 49%
15:00 +26°C° 0.1 mm 1 mps 626 mmHg 56%
16:00 +25°C° 0.1 mm 1 mps 625 mmHg 62%
17:00 +23°C° 0.1 mm 1 mps 625 mmHg 71%
18:00 +21°C° 0.1 mm 1 mps 624 mmHg 79%
19:00 +19°C° 0.1 mm 1 mps 624 mmHg 87%
20:00 +19°C° 0 mm 1 mps 624 mmHg 88%
21:00 +18°C° 0 mm 1 mps 624 mmHg 88%
22:00 +18°C° 0 mm 1 mps 625 mmHg 89%
23:00 +16°C° 0 mm 0 mps 624 mmHg 89%

Day after tomorrow, 10 August, Monday

Time Temperature Precipitation Wind Pressure Humidity
00:00 +15°C° 0 mm 0 mps 624 mmHg 89%
01:00 +15°C° 0 mm 0 mps 624 mmHg 89%
02:00 +15°C° 0 mm 0 mps 623 mmHg 89%
03:00 +15°C° 0 mm 0 mps 623 mmHg 89%
04:00 +15°C° 0 mm 0 mps 623 mmHg 90%
05:00 +15°C° 0 mm 0 mps 623 mmHg 88%
06:00 +15°C° 0 mm 0 mps 623 mmHg 86%
07:00 +16°C° 0 mm 0 mps 624 mmHg 85%
08:00 +18°C° 0 mm 0 mps 625 mmHg 74%
09:00 +23°C° 0 mm 1 mps 626 mmHg 63%
10:00 +26°C° 0 mm 1 mps 627 mmHg 51%
11:00 +27°C° 0 mm 1 mps 627 mmHg 48%
12:00 +28°C° 0 mm 1 mps 627 mmHg 45%
13:00 +29°C° 0 mm 1 mps 626 mmHg 41%
14:00 +28°C° 0 mm 2 mps 626 mmHg 46%
15:00 +27°C° 0 mm 2 mps 625 mmHg 50%
16:00 +26°C° 0 mm 2 mps 624 mmHg 55%
17:00 +24°C° 0.1 mm 2 mps 624 mmHg 65%
18:00 +21°C° 0.1 mm 1 mps 623 mmHg 76%
19:00 +19°C° 0.1 mm 1 mps 622 mmHg 86%
20:00 +19°C° 0 mm 1 mps 623 mmHg 86%
21:00 +18°C° 0 mm 1 mps 623 mmHg 86%
22:00 +18°C° 0 mm 1 mps 624 mmHg 87%
23:00 +16°C° 0 mm 1 mps 623 mmHg 87%

11 August, Tuesday

Time Temperature Precipitation Wind Pressure Humidity
00:00 +15°C° 0 mm 0 mps 623 mmHg 87%
01:00 +15°C° 0 mm 0 mps 623 mmHg 87%
02:00 +15°C° 0 mm 0 mps 622 mmHg 87%
03:00 +14°C° 0 mm 0 mps 622 mmHg 87%
04:00 +14°C° 0 mm 0 mps 622 mmHg 88%
05:00 +15°C° 0 mm 0 mps 622 mmHg 86%
06:00 +15°C° 0 mm 0 mps 622 mmHg 85%
07:00 +16°C° 0 mm 0 mps 623 mmHg 83%
08:00 +20°C° 0 mm 1 mps 624 mmHg 72%
09:00 +23°C° 0 mm 1 mps 625 mmHg 61%
10:00 +26°C° 0 mm 1 mps 626 mmHg 50%
11:00 +27°C° 0 mm 1 mps 626 mmHg 47%
12:00 +28°C° 0 mm 1 mps 626 mmHg 45%
13:00 +29°C° 0 mm 2 mps 625 mmHg 43%
14:00 +28°C° 0 mm 2 mps 625 mmHg 48%
15:00 +27°C° 0 mm 2 mps 624 mmHg 53%
16:00 +26°C° 0 mm 2 mps 623 mmHg 57%
17:00 +24°C° 0.1 mm 1 mps 623 mmHg 69%
18:00 +21°C° 0.1 mm 1 mps 622 mmHg 80%
19:00 +19°C° 0.1 mm 1 mps 622 mmHg 91%
20:00 +19°C° 0 mm 1 mps 622 mmHg 91%
21:00 +18°C° 0 mm 1 mps 623 mmHg 91%
22:00 +16°C° 0 mm 0 mps 623 mmHg 91%
23:00 +16°C° 0 mm 0 mps 623 mmHg 91%

12 August, Wednesday

Time Temperature Precipitation Wind Pressure Humidity
00:00 +16°C° 0 mm 0 mps 623 mmHg 91%
01:00 +15°C° 0 mm 0 mps 622 mmHg 91%
02:00 +15°C° 0 mm 0 mps 622 mmHg 91%
03:00 +15°C° 0 mm 0 mps 622 mmHg 91%
04:00 +15°C° 0 mm 0 mps 622 mmHg 91%
05:00 +15°C° 0 mm 0 mps 622 mmHg 89%
06:00 +16°C° 0 mm 0 mps 623 mmHg 88%
07:00 +16°C° 0 mm 0 mps 623 mmHg 86%
08:00 +19°C° 0 mm 0 mps 624 mmHg 75%
09:00 +21°C° 0 mm 0 mps 625 mmHg 64%
10:00 +26°C° 0 mm 1 mps 626 mmHg 54%
11:00 +26°C° 0 mm 1 mps 626 mmHg 52%
12:00 +27°C° 0 mm 1 mps 625 mmHg 51%
13:00 +27°C° 0 mm 2 mps 625 mmHg 50%
14:00 +26°C° 0.1 mm 2 mps 624 mmHg 55%
15:00 +26°C° 0.1 mm 2 mps 623 mmHg 60%
16:00 +25°C° 0.1 mm 2 mps 622 mmHg 65%
17:00 +23°C° 0.4 mm 2 mps 622 mmHg 74%
18:00 +21°C° 0.4 mm 1 mps 622 mmHg 84%
19:00 +19°C° 0.4 mm 1 mps 622 mmHg 94%
20:00 +19°C° 0.4 mm 1 mps 622 mmHg 94%
21:00 +18°C° 0.4 mm 1 mps 623 mmHg 94%
22:00 +16°C° 0.4 mm 0 mps 623 mmHg 94%
23:00 +16°C° 0 mm 0 mps 623 mmHg 95%

13 August, Thursday

Time Temperature Precipitation Wind Pressure Humidity
00:00 +16°C° 0 mm 0 mps 622 mmHg 95%
01:00 +16°C° 0 mm 0 mps 622 mmHg 96%
02:00 +16°C° 0 mm 0 mps 622 mmHg 96%
03:00 +16°C° 0 mm 0 mps 622 mmHg 96%
04:00 +16°C° 0 mm 0 mps 622 mmHg 95%
05:00 +16°C° 0 mm 0 mps 622 mmHg 94%
06:00 +16°C° 0 mm 0 mps 622 mmHg 93%
07:00 +16°C° 0 mm 0 mps 623 mmHg 92%
08:00 +18°C° 0 mm 0 mps 624 mmHg 83%
09:00 +21°C° 0 mm 0 mps 625 mmHg 73%
10:00 +25°C° 0 mm 1 mps 626 mmHg 64%
11:00 +25°C° 0.3 mm 1 mps 625 mmHg 63%
12:00 +26°C° 0.3 mm 1 mps 625 mmHg 62%
13:00 +26°C° 0.3 mm 1 mps 624 mmHg 60%
14:00 +25°C° 1 mm 2 mps 624 mmHg 67%
15:00 +24°C° 1 mm 2 mps 623 mmHg 73%
16:00 +23°C° 1 mm 2 mps 622 mmHg 80%
17:00 +21°C° 1.4 mm 2 mps 622 mmHg 85%
18:00 +20°C° 1.4 mm 1 mps 622 mmHg 90%
19:00 +19°C° 1.4 mm 1 mps 622 mmHg 95%
20:00 +19°C° 1 mm 1 mps 622 mmHg 95%
21:00 +17°C° 1 mm 0 mps 623 mmHg 96%
22:00 +17°C° 1 mm 0 mps 623 mmHg 96%
23:00 +16°C° 0.7 mm 0 mps 623 mmHg 97%
Show more